| time (UTC) | temp F | wind direction | speed knots | gust knots | rain 1hr in | rain 24hr in | rain mn in | humidity % | barometer mb |
| 20260504081540 | 62 | 161 | 0.0 | 0.9 | 0.00 | 0.00 | 0.00 | 89 | 1016.7 |
| 20260504060120 | 65 | 127 | 0.9 | 5.2 | 0.00 | 0.00 | 0.00 | 83 | 1018.6 |
| 20260504050013 | 66 | 167 | 1.7 | 4.3 | 0.00 | 0.00 | 0.00 | 82 | 1018.9 |
| 20260504044519 | 66 | 175 | 0.9 | 3.5 | 0.00 | 0.00 | 0.00 | 81 | 1018.9 |
| 20260504043013 | 67 | 163 | 0.9 | 4.3 | 0.00 | 0.00 | 0.00 | 80 | 1019.0 |
| 20260504041514 | 67 | 188 | 1.7 | 5.2 | 0.00 | 0.00 | 0.00 | 80 | 1019.2 |
| 20260504040013 | 67 | 160 | 1.7 | 5.2 | 0.00 | 0.00 | 0.00 | 79 | 1019.2 |
| 20260504034509 | 67 | 159 | 1.7 | 4.3 | 0.00 | 0.00 | 0.00 | 78 | 1019.2 |
| 20260504033013 | 68 | 157 | 0.9 | 2.6 | 0.00 | 0.00 | 0.00 | 77 | 1019.2 |
| 20260504031509 | 69 | 128 | 0.9 | 6.1 | 0.00 | 0.00 | 0.00 | 75 | 1019.0 |
| 20260504030012 | 69 | 163 | 1.7 | 4.3 | 0.00 | 0.00 | 0.00 | 74 | 1019.0 |
| 20260504024507 | 70 | 136 | 2.6 | 7.0 | 0.00 | 0.00 | 0.00 | 72 | 1018.9 |
| 20260504023007 | 70 | 173 | 1.7 | 6.1 | 0.00 | 0.00 | 0.00 | 70 | 1018.8 |
| 20260504021508 | 71 | 167 | 2.6 | 7.0 | 0.00 | 0.00 | 0.00 | 68 | 1018.8 |
| 20260504020007 | 71 | 161 | 0.9 | 5.2 | 0.00 | 0.00 | 0.00 | 67 | 1018.4 |
| 20260504014506 | 72 | 94 | 0.9 | 5.2 | 0.00 | 0.00 | 0.00 | 65 | 1018.2 |
| 20260504013005 | 73 | 154 | 0.0 | 1.7 | 0.00 | 0.00 | 0.00 | 64 | 1017.9 |
| 20260504011515 | 74 | 155 | 0.0 | 1.7 | 0.00 | 0.00 | 0.00 | 62 | 1017.7 |
| 20260504010004 | 75 | 154 | 0.0 | 1.7 | 0.00 | 0.00 | 0.00 | 61 | 1017.7 |
| 20260504004502 | 76 | 154 | 0.0 | 1.7 | 0.00 | 0.00 | 0.00 | 59 | 1017.9 |
| 20260504003000 | 77 | 155 | 0.9 | 2.6 | 0.00 | 0.00 | 0.00 | 57 | 1018.0 |
| 20260504001608 | 78 | 159 | 0.9 | 4.3 | 0.00 | 0.00 | 0.00 | 55 | 1018.3 |
| 20260504000123 | 80 | 157 | 1.7 | 8.7 | 0.00 | 0.00 | 0.00 | 54 | 1018.4 |
| 20260503233058 | 80 | 159 | 3.5 | 8.7 | 0.00 | 0.00 | 0.00 | 52 | 1018.4 |
| 20260503231556 | 79 | 195 | 2.6 | 9.6 | 0.00 | 0.00 | 0.00 | 53 | 1018.4 |
| 20260503230057 | 80 | 142 | 1.7 | 7.0 | 0.00 | 0.00 | 0.00 | 52 | 1018.4 |
| 20260503224553 | 80 | 183 | 3.5 | 8.7 | 0.00 | 0.00 | 0.00 | 52 | 1018.7 |
| 20260503223052 | 80 | 194 | 3.5 | 8.7 | 0.00 | 0.00 | 0.00 | 52 | 1018.9 |
| 20260503221550 | 81 | 168 | 4.3 | 10.4 | 0.00 | 0.00 | 0.00 | 51 | 1019.2 |
| 20260503220049 | 80 | 223 | 4.3 | 11.3 | 0.00 | 0.00 | 0.00 | 53 | 1019.3 |
| 20260503214548 | 80 | 196 | 6.1 | 12.2 | 0.00 | 0.00 | 0.00 | 54 | 1019.5 |
| 20260503213046 | 81 | 173 | 2.6 | 8.7 | 0.00 | 0.00 | 0.00 | 52 | 1019.7 |
| 20260503211543 | 81 | 180 | 3.5 | 8.7 | 0.00 | 0.00 | 0.00 | 53 | 1020.1 |
| 20260503210040 | 81 | 161 | 1.7 | 6.1 | 0.00 | 0.00 | 0.00 | 55 | 1020.3 |
| 20260503204539 | 80 | 80 | 0.9 | 7.0 | 0.00 | 0.00 | 0.00 | 55 | 1020.7 |
| 20260503203041 | 80 | 165 | 4.3 | 8.7 | 0.00 | 0.00 | 0.00 | 52 | 1021.1 |
| 20260503201533 | 80 | 167 | 3.5 | 8.7 | 0.00 | 0.00 | 0.00 | 54 | 1021.3 |
| 20260503200032 | 80 | 152 | 4.3 | 8.7 | 0.00 | 0.00 | 0.00 | 55 | 1021.5 |
| 20260503194532 | 79 | 158 | 2.6 | 8.7 | 0.00 | 0.00 | 0.00 | 55 | 1021.8 |
| 20260503193026 | 79 | 155 | 5.2 | 10.4 | 0.00 | 0.00 | 0.00 | 55 | 1022.0 |
| 20260503191535 | 79 | 140 | 1.7 | 8.7 | 0.00 | 0.00 | 0.00 | 55 | 1022.1 |
| 20260503190022 | 79 | 92 | 2.6 | 9.6 | 0.00 | 0.00 | 0.00 | 56 | 1022.5 |
| 20260503184522 | 79 | 193 | 4.3 | 7.8 | 0.00 | 0.00 | 0.00 | 56 | 1022.7 |
| 20260503183021 | 79 | 82 | 2.6 | 7.8 | 0.00 | 0.00 | 0.00 | 55 | 1023.0 |
| 20260503181519 | 79 | 99 | 1.7 | 5.2 | 0.00 | 0.00 | 0.00 | 57 | 1023.1 |
| 20260503180017 | 78 | 175 | 2.6 | 9.6 | 0.00 | 0.00 | 0.00 | 56 | 1023.5 |
| 20260503174514 | 77 | 164 | 1.7 | 9.6 | 0.00 | 0.00 | 0.00 | 58 | 1023.7 |
| 20260503173013 | 77 | 149 | 5.2 | 10.4 | 0.00 | 0.00 | 0.00 | 58 | 1024.0 |
| 20260503171511 | 77 | 175 | 1.7 | 7.8 | 0.00 | 0.00 | 0.00 | 62 | 1024.1 |
| 20260503160117 | 73 | 221 | 2.6 | 7.8 | 0.00 | 0.00 | 0.00 | 71 | 1024.8 |